RH
75 75 79 77 74 74 71 72 75 81 78 72 80 85 88 90 94 93 86 74 66 69 67 66 68 73 74 75 76 72 75 76 76
79 80 82 79 76 71 72 71 74 78 76 70 78 85 89 95 95 93 89 74 63 65 66 65 68 68 66 74 73 75 77 78 77
83 83 84 80 73 72 71 71 72 75 76 77 78 83 86 89 94 93 92 76 65 65 64 65 70 70 70 70 75 77 77 79 77
84 87 86 81 79 80 79 76 75 73 75 76 82 87 89 93 94 88 94 74 67 68 70 70 72 73 73 72 73 72 77 80 78
90 90 91 87 88 88 87 82 78 78 81 82 82 88 91 94 94 95 94 76 67 71 72 71 72 73 75 76 75 75 78 80 81
84 89 89 87 87 87 88 88 85 84 86 85 86 84 94 96 97 97 84 74 69 73 74 74 73 74 75 75 76 75 76 81 82
77 84 85 81 85 86 88 89 90 94 96 96 92 85 88 93 97 98 81 76 71 74 75 75 75 75 74 74 74 76 76 79 84
87 81 78 72 75 66 71 85 86 91 96 96 95 90 87 91 95 93 84 74 71 74 76 76 74 74 74 74 74 75 76 77 82
95 92 89 77 78 74 76 68 64 66 64 82 81 70 71 82 88 94 87 82 70 71 73 75 75 74 73 74 75 76 77 77 79
86 86 88 77 77 89 86 69 63 60 58 60 69 73 76 74 76 86 88 85 83 74 72 72 73 74 73 73 75 76 76 77 78
79 80 80 79 75 76 90 88 78 68 59 57 58 61 66 71 79 91 93 87 83 78 74 74 74 74 75 75 74 75 75 76 77
97 87 79 78 66 57 66 69 82 85 66 57 51 52 53 59 61 68 72 86 89 84 73 74 74 75 75 75 78 75 76 77 77
96 98 96 87 78 63 60 58 65 73 84 76 66 58 49 45 50 59 66 70 74 84 82 81 77 78 75 71 71 79 77 78 77
94 96 96 96 93 84 75 66 64 69 72 63 70 70 60 46 39 49 63 68 72 70 79 89 87 85 77 73 70 71 80 80 78
92 92 93 95 96 95 91 87 73 66 62 44 48 50 53 53 41 43 53 66 76 86 77 86 91 96 92 84 78 72 72 81 83
93 94 92 91 92 94 90 92 93 92 87 66 48 61 50 63 56 48 56 88 68 60 69 82 93 90 93 94 91 84 78 75 75
87 93 93 89 89 87 90 88 92 94 94 92 64 50 57 62 55 65 55 54 53 48 46 62 74 81 86 86 86 88 86 80 82
83 86 91 92 92 93 91 90 84 90 89 89 85 59 51 70 62 53 52 50 53 55 60 70 69 67 76 72 74 80 82 82 79
74 83 87 88 90 91 90 88 88 84 83 77 60 65 59 67 75 58 55 50 51 62 68 68 61 64 67 70 74 74 72 72 74
66 67 75 84 89 89 88 88 89 79 78 76 74 62 71 63 63 73 56 54 64 70 70 68 70 68 65 64 67 68 66 67 66
Wind_Speed
16 15 15 14 13 14 14 13 13 13 13 12 12 12 12 9 6 5 5 5 15 17 17 16 16 17 17 17 17 17 18 18 19
16 14 13 14 14 14 13 13 14 13 12 13 12 11 10 6 6 6 6 6 14 14 14 15 16 16 17 17 18 17 18 18 19
16 14 12 13 14 14 13 12 12 12 12 12 11 9 8 5 6 5 4 9 12 13 14 14 15 16 16 17 17 17 18 18 19
12 11 11 11 11 11 10 12 11 11 10 10 10 9 8 5 3 4 3 8 12 12 12 12 14 15 15 16 16 17 17 17 18
13 12 10 9 9 8 8 9 10 9 8 7 8 9 8 4 3 3 2 7 11 11 11 12 12 13 14 14 15 15 16 17 17
7 8 9 9 8 8 6 7 9 8 7 7 6 6 3 3 2 1 2 8 9 10 10 11 11 12 13 13 14 14 15 15 16
7 8 10 10 10 7 2 7 8 6 2 2 4 3 3 2 1 0 3 7 8 8 8 9 10 10 11 12 12 13 14 14 15
5 4 4 3 6 3 4 5 3 3 2 1 1 4 3 2 1 0 3 4 6 6 6 7 7 9 10 11 11 12 13 13 14
6 4 6 5 4 3 3 3 4 4 3 3 3 5 3 3 2 1 3 3 4 5 5 5 5 6 7 9 9 10 11 12 12
6 6 5 5 4 4 4 3 3 3 3 4 4 4 4 3 2 2 4 3 3 2 4 3 3 4 5 6 7 7 9 10 10
4 6 6 6 6 4 4 3 2 3 3 4 5 4 4 4 4 2 3 4 2 3 3 1 2 1 2 2 4 5 6 7 8
5 5 5 6 7 8 5 4 2 3 3 4 3 3 4 3 4 3 3 3 6 4 2 3 4 5 7 3 3 4 4 5 6
5 5 5 5 6 7 6 5 4 3 3 1 2 2 2 2 2 3 3 2 2 4 4 2 3 4 5 6 7 2 3 4 3
6 5 4 5 5 6 7 6 5 4 3 2 1 1 1 2 2 3 3 4 3 2 4 1 4 6 6 5 4 4 1 3 2
5 4 6 6 5 6 6 6 7 4 6 5 1 1 1 1 3 3 2 3 3 4 3 1 5 12 11 6 5 2 2 2 3
5 4 6 4 6 7 7 4 6 6 7 4 0 1 4 5 4 3 3 4 4 5 4 3 4 6 15 15 12 7 1 2 3
4 5 4 5 5 7 7 6 2 2 6 3 6 2 3 4 5 4 5 5 4 5 6 6 7 6 6 12 20 18 18 12 12
2 4 5 4 3 5 4 4 5 3 1 5 6 0 3 1 3 6 4 6 5 5 5 7 8 9 7 9 12 17 19 16 17
3 4 5 5 3 5 2 4 3 1 4 2 4 3 1 5 1 2 4 5 7 6 5 6 8 8 7 12 17 16 17 15 15
6 4 6 4 4 5 4 4 4 3 2 1 2 2 0 5 1 0 1 3 4 4 5 5 6 8 7 7 13 17 16 16 15
Wind_Direction
130 128 123 119 123 127 120 107 103 109 103 99 98 88 80 71 62 57 51 67 71 64 68 67 60 55 53 54 51 56 54 56 57
131 129 126 122 123 124 119 110 105 108 104 100 104 95 84 78 63 50 44 61 76 73 69 70 66 62 55 51 49 50 53 54 56
133 134 131 126 125 127 122 111 105 107 111 106 104 102 91 81 77 58 46 80 83 76 74 74 69 65 62 57 49 48 49 52 55
124 138 139 134 128 124 119 115 110 105 102 118 111 109 100 96 87 80 54 82 82 81 78 73 73 71 67 65 61 51 46 45 57
99 87 88 118 125 122 118 114 110 107 96 95 124 117 103 97 85 66 83 88 88 82 77 74 70 70 67 62 62 59 54 49 53
47 78 104 96 112 125 108 125 112 99 90 90 116 109 105 104 84 60 58 106 94 88 81 78 74 69 67 64 60 57 55 54 53
40 38 63 79 78 82 122 139 113 98 89 76 93 126 117 105 109 73 64 99 99 96 90 83 80 76 70 68 64 61 57 53 52
28 19 16 7 52 62 74 91 80 109 147 122 131 149 145 123 119 88 94 93 104 103 98 90 82 77 74 68 62 63 61 58 55
20 26 11 17 1 20 71 82 103 94 101 146 132 136 145 148 134 89 70 64 100 105 102 95 84 77 76 74 68 67 67 62 63
20 10 23 14 359 11 3 38 71 70 66 67 84 87 107 113 106 77 37 39 33 84 117 105 94 91 79 78 77 70 72 69 63
68 29 9 17 1 349 356 5 30 64 55 67 59 61 64 72 79 85 18 354 5 357 336 135 153 139 108 111 99 88 76 76 70
41 62 25 14 360 351 358 356 17 60 38 69 54 57 48 46 53 53 46 5 358 318 291 344 22 23 25 19 145 138 109 86 75
27 62 31 22 13 6 351 13 348 35 51 28 32 37 31 14 81 54 36 2 351 350 314 323 348 360 4 21 36 87 148 120 99
49 43 43 28 43 18 360 4 9 1 356 349 348 10 4 337 333 52 21 357 0 336 334 47 59 31 8 347 356 26 114 178 156
72 54 51 44 59 39 2 13 359 17 347 306 283 298 347 18 12 344 7 351 352 344 321 157 77 67 52 19 357 348 61 88 226
31 54 58 48 65 47 26 7 353 20 349 283 36 56 52 41 28 16 19 31 32 36 21 35 81 70 52 41 35 27 306 159 88
36 46 60 50 79 74 54 28 357 40 18 335 287 109 77 49 34 34 54 29 15 27 33 40 68 66 63 49 43 44 44 67 65
94 99 89 63 53 80 68 64 31 25 135 34 300 118 107 55 15 29 43 35 28 14 14 42 55 66 50 46 42 37 48 46 56
22 65 74 74 68 57 40 74 77 54 50 313 302 348 337 69 307 13 35 46 37 26 20 30 45 49 51 49 42 36 43 41 43
34 39 68 59 55 67 9 36 65 65 123 297 331 276 242 72 255 140 43 37 25 40 33 33 39 40 44 39 39 36 31 31 28